Tracking 25656 objects as of 21-May-2022
HD Live streaming from Space Station
objects crossing your sky now

COSMOS 2251 DEB

Track COSMOS 2251 DEB now!
10-day predictions


NORAD ID: 33816
Int'l Code: 1993-036BH
Perigee: 774.9 km
Apogee: 1,176.2 km
Inclination: 73.9 °
Period: 104.4 minutes
Semi major axis: 7346 km
RCS: 0.0795 m2 (small)
Launch date: June 16, 1993
Source: Commonwealth of Independent States (former USSR) (CIS)
Launch site: PLESETSK MISSILE AND SPACE COMPLEX (PKMTR)

Note: This is SATELLITE DEBRIS
aabbcc
Your satellite tracking list
Your tracking list is empty




NASA's NSSDC Master Catalog

Two Line Element Set (TLE):
1 33816U 93036BH  22141.09136705  .00000902  00000-0  68880-3 0  9997
2 33816  73.8948 145.3958 0273128  43.1443 319.0729 13.78720561667166
Source of the keplerian elements: AFSPC